Satellite-Ground Cal/Val Region Overpasses Predictions

Prediction of Satellite NPP Overpassing Cal/Val Region: PacNW

Region Location: (Latitude: 10.00, Longitude: 139.50) to (Latitude: 22.70, Longitude: 165.60).

Table of predicted overpasses for the next 14.0 days since TLE Epoch: 10/2/2021
Interval Starting Time Starting Location Ending Time Ending Location
1 10/02/2021 03:30:55 ( 10.04, 147.06) 10/02/2021 03:34:30 ( 22.66, 144.05)
2 10/02/2021 16:02:48 ( 22.68, 144.30) 10/02/2021 16:06:24 ( 10.00, 141.29)
3 10/03/2021 03:11:54 ( 10.05, 151.81) 10/03/2021 03:15:29 ( 22.67, 148.81)
4 10/03/2021 15:43:46 ( 22.67, 149.06) 10/03/2021 15:47:21 ( 10.05, 146.06)
5 10/04/2021 02:52:51 ( 10.00, 156.58) 10/04/2021 02:56:27 ( 22.68, 153.56)
6 10/04/2021 15:24:45 ( 22.66, 153.82) 10/04/2021 15:28:20 ( 10.04, 150.81)
7 10/05/2021 02:33:50 ( 10.01, 161.34) 10/05/2021 02:37:26 ( 22.69, 158.32)
8 10/05/2021 15:05:43 ( 22.65, 158.57) 10/05/2021 15:09:18 ( 10.03, 155.57)
9 10/06/2021 02:15:25 ( 12.20, 165.59) 10/06/2021 02:18:23 ( 22.65, 163.09)
10 10/06/2021 03:56:18 ( 10.03, 140.72) 10/06/2021 03:57:47 ( 15.26, 139.51)
11 10/06/2021 14:46:42 ( 22.64, 163.33) 10/06/2021 14:50:17 ( 10.02, 160.32)
12 10/07/2021 03:37:17 ( 10.04, 145.47) 10/07/2021 03:40:52 ( 22.66, 142.47)
13 10/07/2021 14:30:38 ( 12.25, 165.59) 10/07/2021 14:31:16 ( 10.01, 165.08)
14 10/07/2021 16:09:10 ( 22.69, 142.72) 10/07/2021 16:12:46 ( 10.01, 139.70)
15 10/08/2021 03:18:15 ( 10.05, 150.23) 10/08/2021 03:21:50 ( 22.67, 147.22)
16 10/08/2021 15:50:08 ( 22.67, 147.48) 10/08/2021 15:53:43 ( 10.06, 144.47)
17 10/09/2021 02:59:13 ( 10.01, 155.00) 10/09/2021 03:02:49 ( 22.69, 151.98)
18 10/09/2021 15:31:07 ( 22.66, 152.23) 10/09/2021 15:34:42 ( 10.04, 149.23)
19 10/10/2021 02:40:11 ( 10.02, 159.75) 10/10/2021 02:43:47 ( 22.70, 156.73)
20 10/10/2021 15:12:05 ( 22.65, 156.99) 10/10/2021 15:15:40 ( 10.03, 153.98)
21 10/11/2021 02:21:10 ( 10.03, 164.51) 10/11/2021 02:24:45 ( 22.66, 161.50)
22 10/11/2021 14:53:03 ( 22.70, 161.76) 10/11/2021 14:56:39 ( 10.02, 158.74)
23 10/12/2021 03:43:38 ( 10.05, 143.89) 10/12/2021 03:47:13 ( 22.67, 140.88)
24 10/12/2021 14:35:05 ( 18.93, 165.59) 10/12/2021 14:37:37 ( 10.01, 163.49)
25 10/12/2021 16:15:31 ( 22.68, 141.14) 10/12/2021 16:17:25 ( 15.99, 139.51)
26 10/13/2021 03:24:36 ( 10.01, 148.66) 10/13/2021 03:28:12 ( 22.69, 145.64)
27 10/13/2021 15:56:30 ( 22.66, 145.89) 10/13/2021 16:00:05 ( 10.04, 142.89)
28 10/14/2021 03:05:35 ( 10.02, 153.41) 10/14/2021 03:09:10 ( 22.65, 150.41)
29 10/14/2021 15:37:28 ( 22.65, 150.65) 10/14/2021 15:41:03 ( 10.03, 147.64)
30 10/15/2021 02:46:33 ( 10.04, 158.17) 10/15/2021 02:50:08 ( 22.66, 155.16)
